Regional Weather Roundup
Issued by NWS San Angelo, TX

Home | Current Version | Previous Version | Text Only | Print | Product List | Glossary On
Versions: 1 2 3 4 5 6 7 8 9 10 11 12 13 14 15 16 17 18 19 20 21 22 23 24 25 26 27 28 29 30 31 32 33 34 35 36 37 38 39 40 41 42 43 44 45 46 47 48 49 50
000
ASUS44 KSJT 271510
RWRSJT
WEST CENTRAL TEXAS REGIONAL WEATHER ROUNDUP
NATIONAL WEATHER SERVICE SAN ANGELO TX
900 AM CST FRI FEB 27 2015

NOTE: "FAIR" INDICATES FEW OR NO CLOUDS BELOW 12,000 FEET WITH NO
SIGNIFICANT WEATHER AND/OR OBSTRUCTIONS TO VISIBILITY.

TXZ049-054-064>066-071>073-076>078-098-099-113-114-127-128-139-140-
154-155-168>170-271600
...LOCATIONS ACROSS WEST CENTRAL TEXAS...

CITY           SKY/WX    TMP DP  RH WIND       PRES   REMARKS
SAN ANGELO     CLOUDY    25  22  88 NE12      30.34R WCI  14
ABILENE        LGT SNOW  21  18  88 NE9       30.39R FOG     WCI  11
DYESS AFB      MIX PCPN  21  18  89 NE9       30.38R FOG     WCI  10
JUNCTION       CLOUDY    31  20  63 E10       30.31R WCI  22
SWEETWATER     CLOUDY    19  18  93 NE14      30.38R WCI   6
BROWNWOOD      CLOUDY    27  19  74 NE10      30.41R WCI  17
COLEMAN        CLOUDY    25  22  88 NE12      30.38R WCI  14
SONORA         CLOUDY    30  19  64 E7        30.33R WCI  23
OZONA          CLOUDY    28  27  93 E10       30.31R WCI  19
BRADY          CLOUDY    28  18  64 E8        30.33R WCI  20
$$

TEXAS PANHANDLE/OKLAHOMA PANHANDLE

CITY           SKY/WX    TMP DP  RH WIND       PRES   REMARKS
AMARILLO       LGT SNOW  12   8  84 E14       30.29F VSB 3/4 WCI  -3
BORGER         LGT SNOW  13   8  81 SE9G18    30.35R VSB 1   WCI   1
CANADIAN       LGT SNOW  15  11  83 E14       30.42F VSB 3/4 WCI   1
DALHART        LGT SNOW  13   8  81 SE14      30.25R WCI  -2
DUMAS          LGT SNOW  12   8  83 E13       30.27S WCI  -3
GUYMON         NOT AVBL
HEREFORD       LGT SNOW  15  11  87 SE15      30.27S WCI  -1
PAMPA          LGT SNOW  11   8  86 E13G18    30.33S VSB 3/4 WCI  -3
PERRYTON       CLOUDY    13   9  84 E12       30.37S WCI  -1
$$

SOUTHERN PANHANDLE/SOUTH PLAINS/ROLLING PLAINS

CITY           SKY/WX    TMP DP  RH WIND       PRES   REMARKS
LUBBOCK        LGT SNOW  14  11  87 E10       30.31R FOG     WCI   1
SNYDER         CLOUDY    17  13  87 NE14      30.37R FOG     WCI   3
CHILDRESS      LGT SNOW  16  13  88 NE12      30.46S VSB 3/4 WCI   3
SEMINOLE       LGT SNOW  17  14  88 E10       30.29R VSB 3/4 WCI   5
$$

PERMIAN BASIN

CITY           SKY/WX    TMP DP  RH WIND       PRES   REMARKS
MIDLAND        CLOUDY    20  17  88 E17       30.28R FOG     WCI   5
ODESSA         CLOUDY    19  16  88 E17       30.28R FOG     WCI   4
WINK           CLOUDY    21  17  84 NE17      30.26R FOG     WCI   7
$$

FAR WEST/SOUTHWEST MOUNTAINS/TRANS PECOS

CITY           SKY/WX    TMP DP  RH WIND       PRES   REMARKS
ALPINE         CLOUDY    24  23  96 NE5       30.19R WCI  18
DRYDEN           N/A     31  28  89 E10       30.24R WCI  22
EL PASO        CLOUDY    31  23  72 NE7       30.05R WCI  24
FORT STOCKTON  CLOUDY    24  24 100 E10       30.23R FOG     WCI  14
GUADALUPE PASS FOG       18  16  92 NE25      30.04R VSB 1/2 WCI   0
MARFA          CLOUDY    27  25  93 NE9       30.09S WCI  17
PECOS          CLOUDY    25  24  93 E12       30.27R FOG     WCI  15
$$

DALLAS/FORT WORTH METROPLEX

CITY           SKY/WX    TMP DP  RH WIND       PRES   REMARKS
DFW AIRPORT    LGT SNOW  26  13  57 NE13      30.50R WCI  15
FTW MEACHAM    SNOW      25  18  74 NE10      30.49R VSB 1/2 WCI  15
DAL-EXECUTIVE  LGT SNOW  27  15  61 NE10      30.48R WCI  17
GRAND PRAIRIE  LGT SNOW  27  18  69 N7        30.52R WCI  19
ADDISON        CLOUDY    27  10  50 NE10      30.49R WCI  17
MESQUITE       CLOUDY    27  14  59 N9        30.50R WCI  17
LANCASTER      CLOUDY    28  14  54 NE10      30.50R WCI  19
$$

NORTH CENTRAL TEXAS

CITY           SKY/WX    TMP DP  RH WIND       PRES   REMARKS
SHRMAN/DENISON PTSUNNY   26  13  59 NE10      30.50R WCI  15
GAINESVILLE    CLOUDY    23  10  56 NE12      30.51S WCI  12
BRIDGEPORT     LGT SNOW  22  21  95 NE6       30.53R VSB 1   WCI  15
DENTON         HVY SNOW  23  15  71 NE12      30.51R VSB 1/4 WCI  12
WAXAHACHIE     LGT SNOW  26  21  81 NE9       30.48R WCI  17
GRANBURY       LGT SNOW  25  22  89 N5        30.49S VSB 1   WCI  19
$$

WESTERN NORTH TEXAS

CITY           SKY/WX    TMP DP  RH WIND       PRES   REMARKS
WICHITA FALLS  LGT SNOW  20  11  68 NE17      30.52R WCI   5
VERNON         CLOUDY    19  13  76 NE15      30.52S VSB 1/4 WCI   5
BRECKENRIDGE   SNOW      23  21  92 NE10      30.46R VSB 1/2 WCI  12
COMANCHE       CLOUDY    24  22  91 NE10      30.41S WCI  13
$$

CENTRAL AND SOUTH CENTRAL TEXAS

CITY           SKY/WX    TMP DP  RH WIND       PRES   REMARKS
AUSTIN/BERGSTM CLOUDY    34  22  61 NE15      30.40R WCI  24
WACO           CLOUDY    29  19  66 N12       30.47R WCI  19
HILLSBORO      MIX PCPN  27  21  77 N8        30.47R WCI  19
TEMPLE         CLOUDY    30  16  55 N9        30.42S WCI  22
KILLEEN-GRAY   CLOUDY    28  19  66 N12       30.40R WCI  18
FORT HOOD      CLOUDY    29  19  64 NE8       30.41R WCI  21
GEORGETOWN     CLOUDY    30  19  64 N15       30.41R WCI  19
LAGO VISTA     CLOUDY    32  21  64 NE9       30.37R WCI  24
SAN MARCOS     CLOUDY    34  21  60 NE16      30.40R WCI  23
NEW BRAUNFELS  CLOUDY    36  23  59 NE18      30.36S WCI  26
RANDOLPH AFB   CLOUDY    36  23  60 NE14      30.35R WCI  27
SAN ANTONIO    CLOUDY    36  23  59 NE10G20   30.35R WCI  28
STINSON        CLOUDY    37  23  56 NE13G20   30.34S WCI  29
PLEASANTON     NOT AVBL
LA GRANGE      CLOUDY    38  31  76 E7        30.40R WCI  33
GIDDINGS       CLOUDY    36  27  69 NE5       30.45R WCI  32
$$

EAST TEXAS

CITY           SKY/WX    TMP DP  RH WIND       PRES   REMARKS
PARIS          CLOUDY    27  12  54 NE15      30.50S WCI  15
CLARKSVILLE    NOT AVBL
TYLER          CLOUDY    30  18  60 NE13      30.44R WCI  20
LONGVIEW       PTSUNNY   31  17  56 E20G26    30.46S WCI  19
PALESTINE      CLOUDY    33  25  75 E8        30.48R WCI  25
NACOGDOCHES    MOSUNNY   34  19  55 E9G16     30.44R WCI  26
$$

TEXAS HILL COUNTRY AND EDWARDS PLATEAU

CITY           SKY/WX    TMP DP  RH WIND       PRES   REMARKS
LLANO          CLOUDY    32  21  64 E10       30.42R WCI  24
HORSESHOE BAY  CLOUDY    32  20  62 NE5       30.38R WCI  27
KERRVILLE      CLOUDY    32  22  66 E7        30.32R WCI  25
FREDERICKSBRG  CLOUDY    31  20  65 E12       30.32R WCI  22
ROCKSPRINGS    CLOUDY    32  21  64 E8        30.28R WCI  25
HONDO          CLOUDY    36  22  56 E14       30.35S WCI  27
UVALDE         CLOUDY    36  22  57 E16       30.33R WCI  26
DEL RIO        CLOUDY    37  25  61 SE8       30.32R WCI  31
$$

SOUTHEAST TEXAS

CITY           SKY/WX    TMP DP  RH WIND       PRES   REMARKS
COLLEGE STN    CLOUDY    36  26  67 NE13      30.42R WCI  27
CALDWELL       CLOUDY    34  28  80 NE8       30.45R WCI  27
CROCKETT       PTSUNNY   36  28  75 NE10      30.46R WCI  28
BRENHAM        CLOUDY    37  32  80 NE6       30.42R WCI  33
HUNTSVILLE     CLOUDY    35  27  72 NE9       30.41R WCI  28
CONROE         MOSUNNY   38  27  64 E9        30.41R WCI  31
HOUSTON BUSH   CLOUDY    39  30  70 E9        30.41R WCI  33
HOUSTON HOBBY  CLOUDY    41  34  76 E8        30.40R WCI  36
PERLAND        CLOUDY    42  34  73 E12       30.41R WCI  36
WHARTON        CLOUDY    40  35  84 NE6       30.41R WCI  36
$$

THE UPPER TEXAS COAST

CITY           SKY/WX    TMP DP  RH WIND       PRES   REMARKS
ORANGE         CLOUDY    40  32  73 NE12G17   30.43R WCI  33
PORT ARTHUR    CLOUDY    39  30  70 E15       30.41R WCI  31
GALVESTON      CLOUDY    41  35  79 N16       30.38R WCI  33
ANGLETON       CLOUDY    40  35  83 NE12      30.37R WCI  33
BAY CITY       CLOUDY    42  38  85 N9        30.37R WCI  37
$$

TEXAS COASTAL BEND, RIO GRANDE PLAINS DEEP SOUTH TEXAS

CITY           SKY/WX    TMP DP  RH WIND       PRES   REMARKS
VICTORIA       CLOUDY    38  33  82 NE16      30.37S WCI  29
BEEVILLE       CLOUDY    39  33  78 NE15G21   30.31F WCI  30
ROCKPORT       CLOUDY    44  36  73 NE22      30.31S HAZE    WCI  35
PORT ARANSAS   CLOUDY    43  38  85 NE22G28   30.30R WCI  34
PORT LAVACA    CLOUDY    40  36  86 N12       30.36S WCI  32
CORPUS CHRISTI CLOUDY    42  35  76 NE20G26   30.29S WCI  33
KINGSVILLE NAS CLOUDY    42  36  79 NE16G22   30.30R WCI  34
COTULLA        CLOUDY    39  25  57 E12       30.33S WCI  32
LAREDO         CLOUDY    39  27  62 NE14      30.32R WCI  31
BROWNSVILLE    CLOUDY    52  47  83 N10       30.23R
PORT ISABEL    PTSUNNY   53  48  83 NW13      30.22R HAZE
HEBBRONVILLE   CLOUDY   N/A N/A N/A N14       30.29R HAZE
MCALLEN        CLOUDY    48  41  76 N14       30.26R
WESLACO        CLOUDY    46  40  79 N7        30.25S HAZE
FALFURRIAS     CLOUDY    41  33  73 N13       30.29S WCI  34
EDINBURG       CLOUDY    46  38  73 N17       30.27R WCI  39
$$



USA.gov is the U.S. government's official web portal to all federal, state and local government web resources and services.